Location: *
(50.3440°N, 18.6237°E)
Time: 17:15:49
(UTC+00:00)

CZ-2C R/B - Pass Details

Date: 30 November 2020
Orbit: 705 x 907 km, 98.1° (Epoch: 17 January)

Event Time Altitude Azimuth Distance (km) Brightness Sun altitude
Rises 16:00:15 0° 128° (SE) 3,208 5.9 -11.4°
Reaches altitude 10° 16:02:54 10° 116° (ESE) 2,258 5.0 -11.8°
Maximum altitude 16:06:53 25° 62° (ENE) 1,437 3.8 -12.4°
Drops below altitude 10° 16:10:48 10° 7° (N) 2,205 5.1 -13.0°
Sets 16:13:21 0° 355° (N) 3,118 6.0 -13.4°
